Location: Taupo
(38.6830°S, 176.0830°E)
Time: 10:21:26
(UTC+12:00)

USA 32 - Pass Details

Date: 24 January 2019
Orbit: 779 x 781 km, 85.0° (Epoch: 13 April)

Event Time Altitude Azimuth Distance (km) Brightness Sun altitude
Rises 21:30:33 0° 350° (N) 3,254 7.0 -9.8°
Reaches altitude 10° 21:32:54 10° 348° (NNW) 2,334 6.3 -10.2°
Maximum altitude 21:38:07 68° 265° (W) 852 4.5 -11.0°
Drops below altitude 10° 21:43:25 10° 181° (S) 2,367 7.1 -11.9°
Sets 21:45:49 0° 178° (S) 3,303 7.8 -12.2°
